Location: Home
(42.5358°N, 72.7383°W)
Time: 18:04:10
(UTC-05:00)

SR - Pass Details

Date: 07 December 2021
Orbit: 582 x 872 km, 66.7° (Epoch: 20 January)

Event Time Altitude Azimuth Distance (km) Brightness Sun altitude
Exits shadow 05:44:04 - 349° (N) 2,475 ? -14.8°
Reaches altitude 10° 05:46:05 10° 7° (N) 1,935 ? -14.5°
Maximum altitude 05:48:37 15° 43° (NE) 1,647 ? -14.0°
Drops below altitude 10° 05:51:13 10° 79° (E) 1,987 ? -13.6°
Sets 05:54:27 0° 103° (ESE) 2,942 ? -13.0°
